RH
78 78 63 48 34 28 27 26 25 33 36 26 20 14 11 7 8 6 5 5 8 9 10 12 12 18 23 36 83 86 100 100 100 100 99 82 78 89 100 100 100 93 95
93 68 56 43 32 28 25 25 33 41 37 21 29 42 32 7 9 5 5 4 6 9 10 12 13 14 18 25 41 55 85 100 100 100 95 100 100 100 100 86 100 68 100
81 64 51 44 31 28 27 30 33 42 55 50 68 100 66 36 11 5 5 5 6 7 10 12 13 14 16 17 26 44 70 100 100 100 100 100 100 100 100 100 100 100 100
77 72 51 43 35 30 34 46 49 52 68 100 100 100 76 55 20 8 6 8 9 8 7 10 13 15 13 14 17 24 50 88 100 100 100 100 100 98 88 79 100 100 100
70 60 50 44 40 34 38 56 63 58 80 86 100 100 98 74 44 17 12 12 18 16 16 11 12 15 14 15 18 22 34 68 100 100 100 100 99 93 100 87 79 100 100
70 55 48 47 45 40 38 47 58 66 69 75 100 100 100 84 70 44 48 45 22 34 40 26 14 15 15 17 21 22 29 55 100 100 100 100 100 100 100 100 100 100 100
60 51 46 45 48 48 42 42 54 64 68 79 83 98 94 69 58 57 61 72 42 38 55 100 50 41 20 21 29 23 26 50 68 100 100 100 100 100 100 100 100 100 100
55 54 51 44 42 50 48 43 58 56 59 78 99 100 98 87 100 93 89 94 99 96 100 100 100 97 86 48 88 29 28 48 72 100 100 100 100 100 100 100 100 100 100
60 57 46 43 44 44 47 47 48 69 59 64 83 100 100 99 95 100 100 100 96 100 100 100 100 100 100 100 100 31 32 43 93 100 100 100 100 100 100 100 100 100 100
47 46 46 45 44 48 49 50 52 70 80 72 70 97 100 100 98 98 100 78 100 98 100 100 100 100 100 100 100 38 38 55 100 100 100 100 100 100 100 100 100 100 100
40 41 43 44 46 46 50 49 52 75 82 87 81 71 92 100 100 99 99 100 80 97 100 100 100 100 100 90 99 91 67 81 100 100 100 100 100 100 100 100 100 100 100
27 31 34 39 41 43 45 48 47 60 85 89 94 88 74 82 100 100 100 96 94 86 71 94 100 100 100 88 68 56 71 100 100 100 100 100 100 100 100 100 100 100 100
14 16 18 22 28 32 38 42 44 44 55 83 92 98 96 86 68 100 100 100 100 92 88 74 69 100 100 93 80 51 49 85 100 100 100 100 100 100 100 100 100 100 100
17 14 14 16 19 22 28 32 39 40 43 54 71 82 87 83 80 76 87 100 98 99 93 85 77 70 59 72 70 67 56 63 72 98 100 100 100 100 100 100 100 100 100
19 17 16 16 17 19 21 25 31 37 39 44 54 62 65 78 79 77 68 62 66 80 90 80 60 56 47 43 38 40 54 47 45 58 78 90 100 100 100 100 97 92 92
24 22 20 20 18 19 21 23 25 28 36 39 42 49 62 69 70 66 63 62 56 51 51 57 60 57 56 53 40 35 31 32 39 36 36 52 75 93 97 88 99 96 84
22 22 25 23 22 21 20 21 23 26 26 29 30 30 36 43 46 50 56 60 60 58 54 53 53 54 56 56 50 46 41 31 29 27 29 32 43 67 80 83 78 68 75
23 23 23 22 24 25 23 23 22 22 22 21 22 22 23 26 28 31 35 37 40 43 39 36 30 26 23 25 30 32 28 26 26 22 21 24 26 26 30 47 60 62 63
30 27 24 23 22 22 23 25 25 22 21 20 20 20 20 19 19 18 18 18 19 20 22 23 24 23 21 18 15 12 12 14 16 14 13 12 12 14 17 18 18 19 19
32 36 36 32 26 23 20 20 20 19 21 24 23 19 17 16 14 13 12 12 11 10 10 10 9 10 10 10 10 10 9 8 8 8 7 8 10 10 10 9 9 10 11
30 30 29 28 29 25 19 16 15 15 15 15 15 14 14 14 14 14 14 13 12 12 12 11 11 10 9 9 8 8 7 7 7 6 6 6 6 6 5 5 5 5 6
32 30 26 22 20 18 17 15 12 10 10 9 9 10 11 11 11 10 9 9 8 8 8 8 8 7 7 6 6 6 6 5 5 4 4 4 4 4 4 4 4 4 4
29 26 20 15 12 11 11 10 10 10 9 8 8 8 7 7 8 8 9 9 9 8 8 7 6 6 5 5 5 4 4 4 4 4 4 3 3 3 3 3 3 3 3
27 20 14 12 11 11 11 11 11 11 10 10 10 9 9 9 9 9 8 8 7 7 7 7 7 7 6 6 5 5 5 5 4 4 4 4 4 4 3 3 3 2 2
23 16 13 13 13 13 13 13 13 12 12 13 13 13 13 13 12 12 11 11 10 9 8 7 7 6 6 6 5 5 5 4 4 4 4 3 3 3 3 2 2 2 2
18 13 13 13 14 15 15 15 14 14 15 15 16 16 16 15 15 14 13 12 11 10 9 8 8 7 6 6 5 4 4 4 3 3 3 2 2 2 2 2 2 2 2
Wind_Speed
63 57 50 52 52 49 47 44 42 40 42 44 42 46 49 43 40 50 55 60 74 83 92 99 107 112 111 106 99 93 87 76 83 81 82 82 78 76 68 67 62 59 51
47 45 44 51 48 43 40 35 31 33 37 36 34 35 41 30 32 39 42 47 62 73 90 93 101 111 117 111 103 93 90 94 93 84 82 84 81 80 78 70 67 65 60
41 44 42 47 44 39 36 32 29 28 26 25 22 28 38 31 25 31 35 43 52 66 78 92 96 105 119 112 106 99 98 85 79 74 80 85 86 81 81 75 74 75 75
41 45 43 43 42 37 34 31 29 24 20 21 20 27 32 31 28 27 31 37 47 56 65 80 95 97 110 117 105 105 107 97 92 84 86 85 86 86 83 84 79 73 74
42 42 45 44 39 36 33 32 29 26 20 20 24 25 37 37 27 26 32 39 45 48 50 59 79 92 95 103 102 105 108 107 98 99 104 100 90 90 91 88 87 84 83
42 42 43 44 43 38 35 32 30 29 25 21 31 35 31 37 25 24 28 29 38 39 40 47 65 81 93 92 96 107 108 107 108 101 106 104 96 98 97 90 95 93 90
46 45 48 46 43 44 39 37 33 29 28 25 26 32 31 31 32 28 29 32 33 36 38 39 50 65 83 89 97 101 107 109 112 107 108 102 100 97 97 99 93 91 94
50 53 53 50 47 43 43 39 39 34 30 27 27 33 33 29 30 29 30 33 34 37 47 50 53 58 68 84 86 105 104 109 110 110 108 108 106 104 103 101 98 97 98
56 58 57 54 50 47 43 42 39 40 36 32 28 38 40 39 38 37 40 45 51 52 53 56 64 69 72 83 85 99 105 111 116 113 107 110 115 110 107 107 104 101 98
61 61 59 56 54 52 50 43 44 41 41 40 32 37 45 47 45 43 49 50 56 63 62 62 67 78 81 83 90 105 106 116 116 116 115 117 120 120 116 116 113 111 108
62 61 61 60 58 54 50 46 44 46 46 44 44 37 44 55 53 52 55 55 57 68 68 71 74 79 84 94 97 102 108 120 115 115 118 123 123 126 126 120 118 118 119
55 55 55 55 54 53 51 50 47 48 50 51 50 49 46 47 64 62 60 63 63 63 70 71 77 84 90 92 100 110 115 122 129 125 126 121 128 133 132 129 127 123 123
51 53 53 54 54 54 52 52 53 52 53 55 55 57 56 56 50 67 72 73 71 73 74 74 79 84 88 93 100 112 122 127 133 136 134 136 135 137 138 138 137 135 137
42 44 48 52 54 54 54 54 55 55 57 59 61 63 65 64 64 63 67 84 84 84 84 84 86 88 95 98 97 109 118 127 139 141 144 146 147 144 147 145 147 147 143
37 39 41 45 50 54 55 55 56 58 58 61 64 67 68 70 70 71 70 70 72 79 90 95 92 90 91 93 99 107 114 126 136 143 152 155 154 154 154 154 155 155 154
33 34 37 40 43 48 54 57 58 59 60 62 64 68 70 72 74 75 76 78 78 79 80 80 81 85 92 96 98 102 110 122 131 142 149 155 159 164 164 165 164 162 163
34 34 34 35 38 43 48 54 58 62 64 65 67 68 70 72 74 76 78 81 84 86 86 86 87 88 89 91 94 98 104 110 124 138 148 157 164 168 171 172 172 173 173
37 36 35 37 38 39 43 48 54 59 64 67 69 71 72 73 75 76 77 79 80 83 85 87 87 89 91 94 98 102 105 108 114 121 138 153 162 167 170 177 180 182 182
44 44 42 40 40 42 44 46 49 54 58 62 66 70 73 75 76 76 77 79 80 82 84 87 89 91 92 93 95 99 104 107 111 115 119 126 136 147 160 168 170 172 174
44 44 46 48 47 46 47 48 51 53 55 57 61 65 68 71 72 74 76 77 78 78 80 81 83 85 89 92 95 98 100 102 105 108 111 115 120 123 126 131 137 143 148
49 48 48 47 49 52 52 51 52 54 56 58 60 62 64 65 66 68 69 70 71 72 74 75 76 78 80 82 85 87 89 91 93 96 100 102 105 108 111 115 119 121 123
54 54 53 52 51 52 53 56 56 55 54 56 58 59 62 63 64 65 66 67 68 69 70 71 73 75 76 78 80 81 83 85 87 88 90 90 92 93 95 97 99 101 103
58 57 56 54 52 52 52 53 55 56 56 55 54 54 55 57 59 61 63 65 66 67 68 69 71 73 75 75 77 78 79 80 81 83 85 86 86 88 89 89 90 91 92
61 59 57 54 52 50 49 49 50 51 51 53 53 54 54 55 56 58 60 62 63 65 66 68 69 70 72 73 74 75 76 77 78 79 79 80 80 82 82 82 83 83 83
62 59 56 54 52 50 49 48 48 48 48 50 51 52 53 54 55 57 59 61 62 64 65 66 67 68 68 69 69 71 71 72 72 73 73 74 74 74 74 75 75 76 75
61 57 54 52 51 50 49 48 47 47 47 48 49 50 52 54 56 57 59 61 63 64 64 64 65 65 65 65 65 65 65 66 66 67 68 69 69 69 70 70 70 70 70
Wind_Direction
281 281 289 289 290 289 287 282 279 279 279 279 279 278 274 271 257 252 245 234 229 224 221 221 217 217 217 220 220 227 227 230 239 239 240 244 244 243 239 234 238 236 238
277 285 288 293 292 289 285 279 275 276 280 281 283 284 285 283 254 250 242 226 220 221 222 220 217 214 218 220 221 221 222 225 233 236 238 239 240 238 238 241 244 242 244
281 286 289 299 297 294 287 284 276 278 289 285 276 277 285 294 276 248 239 225 219 219 219 219 218 216 215 220 221 220 225 224 227 235 238 239 239 238 239 242 244 245 247
284 286 291 299 301 299 291 283 279 279 284 267 259 251 271 282 276 252 234 227 218 218 218 220 219 218 216 217 219 220 224 222 225 234 236 239 239 240 242 244 245 247 246
283 284 296 298 301 301 293 280 277 276 279 272 242 237 272 281 261 247 233 222 216 213 216 222 220 219 218 218 218 220 221 224 225 232 238 239 239 242 245 245 246 246 244
282 289 293 300 300 301 296 280 274 270 265 273 244 257 250 273 241 236 217 223 214 209 210 216 218 215 217 217 218 219 219 223 224 233 233 235 239 242 242 247 246 245 242
285 288 292 295 297 299 298 289 274 266 263 271 257 251 260 233 237 225 220 208 203 196 198 201 212 215 216 216 219 216 218 220 225 228 233 233 236 239 241 244 241 243 244
287 289 289 290 290 292 293 288 276 269 263 258 255 246 248 235 234 218 215 201 191 197 195 196 208 211 211 216 222 214 217 217 224 229 233 234 235 239 240 239 239 242 244
286 285 286 286 286 285 285 283 274 268 264 261 253 243 231 234 228 223 216 202 195 198 207 206 208 216 217 216 221 216 217 217 225 227 231 233 233 236 238 238 239 242 243
283 283 283 283 282 281 281 275 270 263 261 262 254 240 235 226 233 234 223 215 205 204 209 212 214 217 218 218 221 217 217 219 222 227 231 233 235 236 237 238 241 243 245
281 279 279 278 277 275 274 269 261 258 256 256 257 251 237 228 231 234 229 228 228 215 215 218 217 217 220 224 221 221 219 220 224 225 230 235 235 235 236 238 240 243 245
279 276 274 272 271 270 267 265 259 253 250 253 254 254 249 235 231 231 232 234 232 234 229 229 223 222 224 225 225 224 224 222 223 226 229 235 236 239 239 240 240 241 243
277 272 268 267 266 265 264 261 258 255 250 247 249 248 251 250 246 238 232 232 237 239 239 241 235 232 230 231 232 227 226 226 228 229 230 233 237 238 239 240 241 242 244
284 276 269 264 262 262 261 260 259 257 255 251 249 248 247 248 249 246 239 237 240 240 241 243 245 243 239 239 237 235 234 231 230 231 234 235 237 238 240 240 242 243 245
292 285 277 270 265 263 263 262 260 258 257 255 255 254 251 250 251 252 253 251 246 245 246 247 248 248 247 245 244 241 241 237 235 234 235 237 239 241 241 243 243 244 245
299 293 287 279 270 263 261 261 260 259 258 258 257 257 256 257 258 256 255 256 257 256 254 253 253 254 254 254 252 249 246 242 241 240 239 239 241 242 242 244 244 246 246
312 302 293 287 280 272 265 262 260 260 259 259 259 258 258 258 258 257 257 257 257 257 258 258 258 257 256 254 254 253 251 249 246 244 244 243 243 244 244 245 247 248 248
318 311 303 295 286 281 276 270 266 264 263 262 262 263 263 262 261 260 260 260 259 259 259 259 258 256 254 253 252 252 251 250 250 249 247 246 246 247 248 249 250 252 253
316 315 310 302 294 288 282 276 273 270 267 266 266 266 266 266 266 266 265 263 262 261 260 260 260 260 260 260 258 257 256 256 256 255 253 252 252 253 254 255 255 256 257
311 309 307 305 300 293 287 282 278 276 273 270 270 270 269 269 269 269 269 269 268 268 267 266 264 263 263 262 262 262 262 261 261 261 261 260 260 260 260 260 261 261 263
312 309 304 300 296 295 293 288 283 280 277 275 273 272 270 270 270 270 271 272 272 272 272 272 271 270 269 268 267 267 266 265 264 263 263 263 263 263 263 263 264 265 266
315 312 308 304 299 294 291 291 290 288 284 281 279 277 277 276 276 276 275 274 274 273 272 272 271 270 269 268 268 268 268 269 268 268 268 268 268 267 266 266 266 266 266
315 312 309 306 302 298 294 291 289 289 289 288 286 283 280 279 278 277 276 276 276 276 275 275 275 274 274 273 273 273 272 272 272 271 271 271 271 270 270 270 270 269 269
315 313 311 308 305 302 299 296 293 291 290 289 288 288 287 285 283 282 281 280 279 279 279 279 278 278 278 278 277 277 277 276 276 275 275 274 273 273 273 272 272 271 271
314 313 311 308 306 305 302 300 298 295 293 292 291 290 289 288 287 287 286 285 284 284 283 283 282 282 282 281 279 279 278 277 276 275 275 275 275 274 274 274 273 272 271
313 311 309 307 305 305 304 303 302 300 298 296 294 293 292 291 290 289 288 287 287 286 286 286 285 284 283 282 281 281 280 279 279 278 277 277 276 276 275 275 274 274 274